Regional Weather Roundup
Issued by NWS

Home | Current Version | Previous Version | Text Only | Print | Product List | Glossary Off
Versions: 1 2 3 4 5 6 7 8 9 10 11 12 13 14 15 16 17 18 19 20 21 22 23 24 25 26 27 28 29 30 31 32 33 34 35 36 37 38 39 40 41 42 43 44 45 46 47 48 49 50

000
ASUS43 KLOT 232308
RWRIL

ILLINOIS REGIONAL WEATHER ROUNDUP
NATIONAL WEATHER SERVICE CHICAGO/ROMEOVILLE IL
600 PM CDT WED AUG 23 2017

NOTE: "FAIR" INDICATES FEW OR NO CLOUDS BELOW 12,000 FEET WITH NO
SIGNIFICANT WEATHER AND/OR OBSTRUCTIONS TO VISIBILITY.

* THESE STATIONS ARE NOT UNDER NWS QUALITY CONTROL. THEY ALSO MAY NOT
  REPORT WEATHER SUCH AS PRECIPITATION OR FOG.

ILZ001-002-007-009-015-016-024-240000-
NORTHWEST ILLINOIS

CITY           SKY/WX    TMP DP  RH WIND       PRES   REMARKS
MOLINE         MOSUNNY   79  49  34 NW13      30.03F
SAVANNA*       SUNNY     75  50  40 N8        30.03S
$$

ILZ003-004-008-010-011-017-018-240000-
NORTH CENTRAL ILLINOIS

CITY           SKY/WX    TMP DP  RH WIND       PRES   REMARKS
ROCKFORD       MOSUNNY   74  52  46 NW8       30.03S
FREEPORT*      SUNNY     72  51  47 NW9       30.04F
ROCHELLE*      MOSUNNY   74  52  46 NW8       30.03F
DE KALB*       MOSUNNY   73  53  49 W9        30.03F
PERU*          SUNNY     73  53  50 NW7       30.04S
$$

ILZ005-006-012>014-019>023-240000-
NORTHEAST ILLINOIS

CITY           SKY/WX    TMP DP  RH WIND       PRES   REMARKS
CHICAGO-OHARE  MOSUNNY   76  49  38 NW12      30.00S
CHICAGO-MIDWAY PTSUNNY   72  57  59 E12       30.01R
AURORA         MOSUNNY   73  57  57 NW6       30.03R
LANSING*       MOSUNNY   70  58  64 NE7       30.01S
JOLIET*        MOSUNNY   76  53  45 NW5       30.02S
WAUKEGAN       MOSUNNY   68  57  68 E3        30.01S
DUPAGE AIRPORT SUNNY     73  52  47 NW10      30.01S
KANKAKEE*      SUNNY     73  52  48 NW9       30.02S
WHEELING       MOSUNNY   72  57  59 E7        30.02S
MORRIS*        SUNNY     74  54  49 NW5       30.01S
ROMEOVILLE*    MOSUNNY   73  53  49 NW10      30.01S
NORTHERLY ISL    N/A     70  57  63 E10         N/A
$$

LMZ740>746-240000-
SOUTHERN LAKE MICHIGAN

STATION/POSITION SKY/WX   TEMP    WIND        PRES    VSBY  WAVE
                          AIR SEA DIR/SP/G                  HT/PER
                          (F)     (DEG/KT/KT) (MB)    (MI)  (FT/S)
SOUTHERN BUOY              66 71   10/  4/  6 1016.5          2/ 5
WILMETTE HARBOR            69 73   70/  8/ 10   N/A           2/ 5
HARRISON CRIB              69      70/  8/  9   N/A
CALUMET HARBOR             69      40/  7/ 10 1015.9R
BURNS HARBOR               70      50/ 10/ 13 1016.9S
MICHIGAN CITY              68      30/ 10/ 12   N/A
MICHIGAN CITY 6N           69 74   50/ 10/ 16   N/A           3/ 5
ST. JOSEPH                 68 74   50/ 10/ 14 1016.5          3/ 6
$$

ILZ025>027-034>036-040-047-049-050-058-095>099-240000-
WEST-CENTRAL ILLINOIS

CITY           SKY/WX    TMP DP  RH WIND       PRES   REMARKS
QUINCY         SUNNY     76  51  41 N6        30.05F
GALESBURG*     SUNNY     74  52  46 NW7       30.06S
MACOMB*        SUNNY     74  53  46 N5        30.07F
JACKSONVILLE*  SUNNY     74  52  45 N7        30.06R
PITTSFIELD*    SUNNY     75  55  49 N6        30.07S
$$

ILZ028>032-037-038-041>044-048-051>054-059>061-240000-
CENTRAL ILLINOIS

CITY           SKY/WX    TMP DP  RH WIND       PRES   REMARKS
PONTIAC        MOSUNNY   74  55  51 NW8       30.03F
BLOOMINGTON    MOSUNNY   75  50  41 N9        30.04F
DECATUR        SUNNY     77  51  40 N10G17    30.04F
PEORIA         MOSUNNY   76  50  40 NW7       30.04S
LACON*         MOSUNNY   75  52  45 N7        30.03S
LINCOLN*       MOSUNNY   76  53  44 NW3       30.04S
SPRINGFIELD    MOSUNNY   76  54  46 N6        30.05S
TAYLORVILLE    MOSUNNY   74  54  50 N7        30.05S
$$

ILZ033-039-045-046-055>057-062-063-240000-
EAST-CENTRAL ILLINOIS

CITY           SKY/WX    TMP DP  RH WIND       PRES   REMARKS
CHAMPAIGN      MOSUNNY   76  49  38 NW6       30.03F
RANTOUL*       SUNNY     77  52  41 NW7       30.03S
MATTOON        SUNNY     75  54  47 N7        30.02F
PARIS*         SUNNY     76  51  41 NW9       30.03S
$$

ILZ079-100>102-240000-
SOUTHWEST ILLINOIS

CITY           SKY/WX    TMP DP  RH WIND       PRES   REMARKS
ALTON          MOSUNNY   75  57  53 N9        30.04F
BELLEVILLE     SUNNY     79  56  45 N6        30.04F
CAHOKIA*       SUNNY     80  52  37 N9        30.03S HX  80
SPARTA*        SUNNY     76  55  46 N5        30.04S
$$

ILZ064>066-069>071-074>076-080>082-084>086-088>090-092>094-240000-
SOUTH-CENTRAL ILLINOIS

CITY           SKY/WX    TMP DP  RH WIND       PRES   REMARKS
CARBONDALE     SUNNY     78  55  44 NE6       30.02F
CAIRO*         SUNNY     78  56  46 N9        30.00S
EFFINGHAM*     SUNNY     76  53  45 NW9       30.04S
MARION         SUNNY     79  54  41 N8        30.02F
MT. VERNON       N/A     77  56  48 VRB6      30.02F
CENTRALIA*     SUNNY     78  56  48 N6        30.02F
SALEM*         SUNNY     78  53  43 N7        30.03S
METROPOLIS*    SUNNY     79  57  46 N8        30.00S HX  80
$$

ILZ067-068-072-073-078-083-087-091-240000-
SOUTHEAST ILLINOIS

CITY           SKY/WX    TMP DP  RH WIND       PRES   REMARKS
LAWRENCEVILLE  SUNNY     77  54  44 N9        30.01F
FLORA*         MOSUNNY   78  56  46 N5        30.02S
FAIRFIELD*     PTSUNNY   77  55  46 NW3       30.01S
HARRISBURG*    SUNNY     78  56  46 N6        30.01F
ROBINSON*      SUNNY     75  53  46 N6        30.03S
CARMI*         SUNNY     75  59  57 N7        30.01S
$$

ABBREVIATIONS USED IN REMARKS
   TC - TEMPERATURE IN CELSIUS
  WCI - WIND CHILL INDEX
   HX - HEAT INDEX
  VSB - VISIBILITY
$$




USA.gov is the U.S. government's official web portal to all federal, state and local government web resources and services.